Location: Bonningues
(50.7927°N, 2.0150°E)
Time: 00:04:15
(UTC+00:00)

Cosmos 1733 Rocket - Pass Details

Date: 08 August 2020
Orbit: 603 x 628 km, 82.5° (Epoch: 23 September)

Event Time Altitude Azimuth Distance (km) Brightness Sun altitude
Exits shadow 22:50:58 57° 114° (ESE) 735 3.1 -21.8°
Maximum altitude 22:51:14 58° 96° (E) 725 3.2 -21.9°
Drops below altitude 10° 22:55:36 10° 17° (NNE) 2,001 6.4 -22.0°
Sets 22:57:52 0° 14° (NNE) 2,916 7.5 -22.1°
